Weather History for Namest Nad Oslav, Czech Republic

Change the Weather History Date:

Wednesday, April 25, 2012

  Actual Average Record
Temperature  
Mean Temperature 48 °F -  
Max Temperature 60 °F - - ()
Min Temperature 37 °F - - ()
Degree Days  
Heating Degree Days 16    
Moisture  
Dew Point 35 °F    
Average Humidity 63    
Maximum Humidity 93    
Minimum Humidity 27    
Precipitation  
Precipitation 0.00 in - - ()
Sea Level Pressure  
Sea Level Pressure 29.73 in    
Wind  
Wind Speed 8 mph ()    
Max Wind Speed 14 mph    
Max Gust Speed -    
Visibility 6.2 miles    
Events      
T = Trace of Precipitation, MM = Missing Value Source: Averaged Metar Reports

Daily Weather History Graph

Daily Weather History Graph

Search for Another Location

Airport:

Trip Planner

Search our weather history database for the weather conditions in past years. The results will help you decide how hot, cold, wet, or windy it might be!

Date:

Astronomy

Apr. 25, 2012 Rise Set
Actual Time 5:44 AM CEST 8:03 PM CEST
Civil Twilight 5:09 AM CEST 8:38 PM CEST
Nautical Twilight 4:25 AM CEST 9:22 PM CEST
Astronomical Twilight 3:36 AM CEST 10:12 PM CEST
Moon 8:00 AM CEST (4/25) No Moon Set
Length of Visible Light 15h 28m
Length of Day
14h 18m
Waxing Crescent, 14% of the Moon is Illuminated
Apr 25
Waxing Crescent
Apr 29
First Quarter
May 6
Full
May 12
Last Quarter
May 21
New

Hourly Weather History & Observations

Time (CEST) Temp. Windchill Dew Point Humidity Pressure Visibility Wind Dir Wind Speed Gust Speed Precip Events Conditions
12:00 AM 41.0 °F 34.3 °F 37.4 °F 87% 29.59 in - SE 11.5 mph - N/A   Clear
1:00 AM 41.0 °F 36.4 °F 37.4 °F 87% 29.59 in 6.2 mi WSW 6.9 mph - N/A   Mostly Cloudy
2:00 AM 39.2 °F 34.2 °F 37.4 °F 93% 29.62 in - SW 6.9 mph - N/A   Clear
3:00 AM 39.2 °F 35.9 °F 37.4 °F 93% 29.62 in - SSW 4.6 mph - N/A   Clear
4:00 AM 37.4 °F 32.8 °F 35.6 °F 93% 29.65 in - SW 5.8 mph - N/A   Clear
5:00 AM 37.4 °F 33.8 °F 35.6 °F 93% 29.65 in - SW 4.6 mph - N/A   Clear
6:00 AM 39.2 °F 35.0 °F 37.4 °F 93% 29.68 in 6.2 mi SSW 5.8 mph - N/A   Scattered Clouds
7:00 AM 41.0 °F 35.8 °F 39.2 °F 93% 29.71 in 6.2 mi SW 8.1 mph - N/A   Mostly Cloudy
8:00 AM 44.6 °F 39.2 °F 39.2 °F 81% 29.74 in 6.2 mi SW 10.4 mph - N/A   Mostly Cloudy
9:00 AM 48.2 °F - 37.4 °F 66% 29.77 in 6.2 mi WSW 12.7 mph - N/A   Mostly Cloudy
10:00 AM 50.0 °F - 37.4 °F 62% 29.77 in 6.2 mi West 13.8 mph - N/A   Mostly Cloudy
11:00 AM 51.8 °F - 37.4 °F 58% 29.80 in 6.2 mi West 12.7 mph - N/A   Mostly Cloudy
12:00 PM 51.8 °F - 35.6 °F 54% 29.80 in 6.2 mi West 9.2 mph - N/A   Mostly Cloudy
1:00 PM 55.4 °F - 35.6 °F 47% 29.80 in 6.2 mi WSW 11.5 mph - N/A   Mostly Cloudy
2:00 PM 59.0 °F - 33.8 °F 39% 29.80 in 6.2 mi SW 12.7 mph - N/A   Scattered Clouds
3:00 PM 59.0 °F - 33.8 °F 39% 29.77 in - SSW 8.1 mph - N/A   Clear
4:00 PM 59.0 °F - 32.0 °F 36% 29.77 in - WSW 9.2 mph - N/A   Clear
5:00 PM 60.8 °F - 32.0 °F 34% 29.77 in - SW 11.5 mph - N/A   Clear
6:00 PM 60.8 °F - 26.6 °F 27% 29.77 in - SSW 6.9 mph - N/A   Clear
7:00 PM 59.0 °F - 30.2 °F 34% 29.77 in - SSE 10.4 mph - N/A   Clear
8:00 PM 55.4 °F - 33.8 °F 44% 29.77 in - SE 8.1 mph - N/A   Clear
9:00 PM 53.6 °F - 33.8 °F 47% 29.77 in - SE 6.9 mph - N/A   Clear
10:00 PM 53.6 °F - 33.8 °F 47% 29.80 in - ESE 8.1 mph - N/A   Clear
11:00 PM 51.8 °F - 35.6 °F 54% 29.80 in - ESE 6.9 mph - N/A   Clear